EW5035 Weather Reports


Display with metric or nautical units.
time (UTC)temp
F
wind
direction
speed
MPH
gust
MPH
rain 1hr
in
rain 24hr
in
rain mn
in
humidity
%
barometer
mb
20260902134035 58 178 10.0 16.0 0.00 0.00 0.00 69 1009.2
20260902133535 58 189 11.0 16.0 0.00 0.00 0.00 69 1009.0
20260902133100 58 173 10.0 19.0 0.00 0.00 0.00 69 1009.1
20260902132535 58 165 9.0 21.0 0.00 0.00 0.00 69 1009.1
20260902132034 58 173 11.0 21.0 0.00 0.00 0.00 69 1009.1
20260902131556 58 167 12.0 25.0 0.00 0.00 0.00 69 1008.9
20260902131034 58 178 14.0 25.0 0.00 0.00 0.00 69 1008.8
20260902130534 59 188 15.0 22.0 0.00 0.00 0.00 68 1008.7
20260902130053 59 189 14.0 22.0 0.00 0.00 0.00 68 1008.8
20260902125535 59 192 14.0 20.0 0.00 0.00 0.00 68 1008.8
20260902125036 59 205 13.0 23.0 0.00 0.00 0.00 67 1008.6
20260902124549 59 186 15.0 23.0 0.00 0.00 0.00 67 1008.7
20260902124034 59 195 14.0 22.0 0.00 0.00 0.00 66 1008.7
20260902123534 59 198 14.0 21.0 0.00 0.00 0.00 66 1008.6
20260902123050 59 188 14.0 25.0 0.00 0.00 0.00 66 1008.7
20260902122534 60 182 15.0 25.0 0.00 0.00 0.00 66 1008.7
20260902122035 60 188 13.0 24.0 0.00 0.00 0.00 65 1008.5
20260902121554 60 186 13.0 22.0 0.00 0.00 0.00 65 1008.6
20260902121031 60 190 15.0 22.0 0.00 0.00 0.00 65 1008.6
20260902120535 60 202 13.0 20.0 0.00 0.00 0.00 64 1008.4
20260902120052 60 215 12.0 19.0 0.00 0.00 0.00 64 1008.5
20260902115534 60 215 11.0 18.0 0.00 0.00 0.00 64 1008.7
20260902115035 60 192 11.0 21.0 0.00 0.00 0.00 64 1008.9
20260902114554 60 194 13.0 21.0 0.00 0.00 0.00 64 1008.9
20260902114035 60 195 13.0 24.0 0.00 0.00 0.00 64 1009.1
20260902113535 60 194 12.0 24.0 0.00 0.00 0.00 64 1009.2
20260902113049 60 196 17.0 24.0 0.00 0.00 0.00 63 1009.2
20260902112534 60 191 16.0 23.0 0.00 0.00 0.00 64 1009.1
20260902112031 60 188 17.0 23.0 0.00 0.00 0.00 64 1009.0
20260902111555 60 173 15.0 24.0 0.00 0.00 0.00 64 1008.9
20260902111035 60 193 15.0 24.0 0.00 0.00 0.00 63 1008.7
20260902110534 60 182 14.0 25.0 0.00 0.00 0.00 63 1008.6
20260902110101 60 165 15.0 25.0 0.00 0.00 0.00 63 1008.3
20260902105535 60 187 12.0 21.0 0.00 0.00 0.00 63 1008.5
20260902105035 60 188 13.0 23.0 0.00 0.00 0.00 63 1008.6
20260902104553 60 165 15.0 26.0 0.00 0.00 0.00 63 1008.3
20260902104035 60 180 15.0 26.0 0.00 0.00 0.00 63 1008.0
20260902103535 60 202 15.0 27.0 0.00 0.00 0.00 63 1008.0
20260902103049 60 180 16.0 27.0 0.00 0.00 0.00 63 1008.1
20260902102531 60 181 14.0 26.0 0.00 0.00 0.00 63 1008.1
20260902102035 60 178 17.0 28.0 0.00 0.00 0.00 62 1008.0
20260902101554 60 192 19.0 28.0 0.00 0.00 0.00 62 1007.9
20260902101034 60 159 15.0 27.0 0.00 0.00 0.00 62 1008.0
20260902100539 60 184 15.0 25.0 0.00 0.00 0.00 62 1008.2
20260902100052 60 186 14.0 25.0 0.00 0.00 0.00 61 1008.1
20260902095537 60 169 14.0 22.0 0.00 0.00 0.00 61 1008.2
20260902095034 60 184 14.0 21.0 0.00 0.00 0.00 61 1008.0
20260902094553 60 148 12.0 19.0 0.00 0.00 0.00 60 1008.2
20260902094035 60 186 11.0 21.0 0.00 0.00 0.00 60 1008.0
20260902093536 61 162 12.0 21.0 0.00 0.00 0.00 60 1008.1
20260902093059 61 168 13.0 21.0 0.00 0.00 0.00 60 1007.9
20260902092534 61 187 11.0 25.0 0.00 0.00 0.00 60 1007.9
20260902092039 61 195 14.0 25.0 0.00 0.00 0.00 60 1008.0
20260902091558 61 185 13.0 28.0 0.00 0.00 0.00 60 1008.2
20260902091034 61 193 13.0 30.0 0.00 0.00 0.00 60 1008.1
20260902090534 61 173 14.0 30.0 0.00 0.00 0.00 59 1008.0
20260902090052 61 195 12.0 22.0 0.00 0.00 0.00 59 1008.2
20260902085534 61 177 12.0 26.0 0.00 0.00 0.00 59 1008.2
20260902085036 61 167 14.0 26.0 0.00 0.00 0.00 59 1008.2
20260902084556 62 167 14.0 26.0 0.00 0.00 0.00 59 1008.0
20260902084035 62 164 12.0 26.0 0.00 0.00 0.00 58 1008.0
20260902083538 62 158 16.0 27.0 0.00 0.00 0.00 58 1007.9
20260902083056 62 157 18.0 27.0 0.00 0.00 0.00 57 1007.9
20260902082534 62 176 14.0 23.0 0.00 0.00 0.00 57 1007.8
20260902082031 62 178 14.0 26.0 0.00 0.00 0.00 57 1007.8
20260902081554 62 147 12.0 28.0 0.00 0.00 0.00 56 1007.9
20260902081035 62 162 13.0 28.0 0.00 0.00 0.00 56 1007.9
20260902080535 62 167 14.0 25.0 0.00 0.00 0.00 56 1007.8
20260902080108 63 173 15.0 27.0 0.00 0.00 0.00 55 1007.8
20260902075537 63 156 18.0 27.0 0.00 0.00 0.00 55 1007.9
20260902075037 63 162 15.0 28.0 0.00 0.00 0.00 55 1007.9
20260902074558 63 171 14.0 30.0 0.00 0.00 0.00 55 1007.8
20260902074035 63 171 14.0 30.0 0.00 0.00 0.00 55 1007.8
20260902073534 63 166 14.0 24.0 0.00 0.00 0.00 54 1007.8
20260902073048 63 163 14.0 22.0 0.00 0.00 0.00 54 1007.8
20260902072534 63 158 8.0 20.0 0.00 0.00 0.00 53 1007.8
20260902072037 64 156 10.0 23.0 0.00 0.00 0.00 53 1007.9
20260902071554 64 165 15.0 23.0 0.00 0.00 0.00 53 1008.0
20260902071035 64 186 13.0 23.0 0.00 0.00 0.00 52 1008.0
20260902070535 64 149 13.0 24.0 0.00 0.00 0.00 52 1007.9
20260902070054 64 154 12.0 24.0 0.00 0.00 0.00 52 1007.7
20260902065538 64 173 15.0 24.0 0.00 0.00 0.00 52 1007.7
20260902065035 64 170 13.0 22.0 0.00 0.00 0.00 52 1007.8
20260902064554 64 171 12.0 24.0 0.00 0.00 0.00 52 1007.6
20260902064034 64 187 13.0 24.0 0.00 0.00 0.00 51 1007.4
20260902063535 65 165 17.0 25.0 0.00 0.00 0.00 51 1007.4
20260902063050 65 161 14.0 25.0 0.00 0.00 0.00 51 1007.4
20260902062537 65 159 13.0 21.0 0.00 0.00 0.00 51 1007.3
20260902062033 65 169 13.0 28.0 0.00 0.00 0.00 50 1007.4
20260902061612 65 167 12.0 28.0 0.00 0.00 0.00 50 1007.5
20260902061035 65 160 13.0 19.0 0.00 0.00 0.00 50 1007.3
20260902060534 65 157 12.0 18.0 0.00 0.00 0.00 50 1007.3
20260902060053 65 155 12.0 20.0 0.00 0.00 0.00 49 1007.2
20260902055536 65 155 11.0 20.0 0.00 0.00 0.00 49 1007.3
20260902055035 65 152 13.0 19.0 0.00 0.00 0.00 49 1007.3
20260902054559 66 170 12.0 17.0 0.00 0.00 0.00 49 1007.2
20260902054036 66 185 7.0 15.0 0.00 0.00 0.00 48 1007.2
20260902053536 66 185 10.0 17.0 0.00 0.00 0.00 47 1007.1
20260902053058 67 186 11.0 18.0 0.00 0.00 0.00 45 1007.0
20260902052534 67 186 11.0 19.0 0.00 0.00 0.00 44 1007.1
20260902052035 68 184 12.0 19.0 0.00 0.00 0.00 43 1007.1
20260902051600 68 188 10.0 16.0 0.00 0.00 0.00 42 1007.1
20260902051031 68 189 9.0 15.0 0.00 0.00 0.00 42 1007.0
20260902050537 69 189 8.0 15.0 0.00 0.00 0.00 41 1007.0
20260902050053 69 189 7.0 15.0 0.00 0.00 0.00 41 1006.9
20260902045534 70 189 9.0 14.0 0.00 0.00 0.00 40 1006.9
20260902045034 70 190 9.0 14.0 0.00 0.00 0.00 40 1006.8
20260902044602 70 192 8.0 15.0 0.00 0.00 0.00 40 1006.8
20260902044035 71 196 6.0 15.0 0.00 0.00 0.00 40 1006.7
20260902043534 72 196 9.0 16.0 0.00 0.00 0.00 39 1006.7
20260902043105 72 196 11.0 16.0 0.00 0.00 0.00 39 1006.7
20260902042534 72 205 6.0 12.0 0.00 0.00 0.00 38 1006.5
20260902042035 73 205 5.0 8.0 0.00 0.00 0.00 39 1006.2
20260902041556 72 205 5.0 8.0 0.00 0.00 0.00 39 1006.2
20260902041032 72 205 4.0 6.0 0.00 0.00 0.00 39 1006.2
20260902040534 72 205 4.0 6.0 0.00 0.00 0.00 39 1006.2
20260902040054 73 205 4.0 6.0 0.00 0.00 0.00 39 1006.2
20260902035538 72 205 4.0 7.0 0.00 0.00 0.00 39 1006.2
20260902035035 72 205 4.0 7.0 0.00 0.00 0.00 39 1006.3
20260902034602 72 205 3.0 7.0 0.00 0.00 0.00 39 1006.2
20260902034038 71 205 4.0 7.0 0.00 0.00 0.00 40 1006.2
20260902033534 70 205 3.0 7.0 0.00 0.00 0.00 41 1006.0
20260902033103 68 0 0.0 3.0 0.00 0.00 0.00 42 1005.9
20260902032535 69 0 1.0 3.0 0.00 0.00 0.00 42 1005.8
20260902032032 69 0 0.0 3.0 0.00 0.00 0.00 43 1005.7
20260902031601 69 0 0.0 3.0 0.00 0.00 0.00 42 1005.7
20260902031035 69 0 0.0 3.0 0.00 0.00 0.00 42 1005.6
20260902030537 69 205 0.0 4.0 0.00 0.00 0.00 41 1005.5
20260902030050 69 205 0.0 4.0 0.00 0.00 0.00 41 1005.7
20260902025535 69 205 1.0 3.0 0.00 0.00 0.00 42 1005.6
20260902025035 70 0 0.0 2.0 0.00 0.00 0.00 41 1005.6
20260902024550 71 0 0.0 2.0 0.00 0.00 0.00 39 1005.6
20260902024035 72 0 0.0 2.0 0.00 0.00 0.00 39 1005.6
20260902023534 72 0 0.0 2.0 0.00 0.00 0.00 38 1005.5
20260902023055 73 0 0.0 2.0 0.00 0.00 0.00 36 1005.3
20260902022535 75 0 0.0 5.0 0.00 0.00 0.00 36 1005.4
20260902022036 76 0 1.0 6.0 0.00 0.00 0.00 34 1005.4
20260902021602 76 205 4.0 7.0 0.00 0.00 0.00 35 1005.5
20260902021035 76 205 5.0 7.0 0.00 0.00 0.00 35 1005.5
20260902020535 76 205 6.0 7.0 0.00 0.00 0.00 34 1005.5
20260902020051 77 205 5.0 6.0 0.00 0.00 0.00 34 1005.5
20260902015534 77 205 5.0 6.0 0.00 0.00 0.00 33 1005.5
20260902015035 77 205 5.0 6.0 0.00 0.00 0.00 33 1005.6
20260902014600 77 205 4.0 6.0 0.00 0.00 0.00 33 1005.7
20260902014035 78 205 4.0 6.0 0.00 0.00 0.00 33 1005.7
20260902013535 78 205 4.0 5.0 0.00 0.00 0.00 33 1005.6
20260902013050 78 205 4.0 6.0 0.00 0.00 0.00 32 1005.7
20260902012535 78 205 3.0 6.0 0.00 0.00 0.00 32 1005.7
20260902012037 79 205 3.0 5.0 0.00 0.00 0.00 31 1005.7
20260902011550 79 205 2.0 5.0 0.00 0.00 0.00 31 1005.7
20260902011035 80 205 2.0 4.0 0.00 0.00 0.00 31 1005.8
20260902010535 80 205 1.0 5.0 0.00 0.00 0.00 31 1005.7
20260902010050 80 205 2.0 6.0 0.00 0.00 0.00 31 1005.7
20260902005534 80 205 2.0 7.0 0.00 0.00 0.00 30 1005.7
20260902005035 80 205 3.0 7.0 0.00 0.00 0.00 30 1005.8
20260902004550 80 205 3.0 6.0 0.00 0.00 0.00 31 1005.7
20260902004035 80 205 3.0 5.0 0.00 0.00 0.00 30 1005.8
20260902003536 80 205 1.0 4.0 0.00 0.00 0.00 31 1005.8
20260902003100 80 0 2.0 7.0 0.00 0.00 0.00 31 1005.7
20260902002534 80 205 4.0 7.0 0.00 0.00 0.00 30 1005.7
20260902002035 81 205 3.0 6.0 0.00 0.00 0.00 30 1005.7
20260902001551 81 0 0.0 8.0 0.00 0.00 0.00 30 1005.7
20260902001035 80 205 3.0 8.0 0.00 0.00 0.00 30 1005.7
20260902000534 80 205 4.0 9.0 0.00 0.00 0.00 30 1005.9
20260902000053 80 205 5.0 9.0 0.00 0.00 0.00 30 1005.9
20260901235536 79 205 4.0 8.0 0.00 0.00 0.00 31 1005.8
20260901235035 80 205 4.0 7.0 0.00 0.00 0.00 31 1005.9
20260901234557 80 205 3.0 7.0 0.00 0.00 0.00 30 1005.8
20260901234037 80 205 1.0 7.0 0.00 0.00 0.00 31 1005.9
20260901233626 79 0 3.0 9.0 0.00 0.00 0.00 32 1006.0
20260901233105 79 205 5.0 9.0 0.00 0.00 0.00 32 1006.0
20260901232533 80 205 2.0 6.0 0.00 0.00 0.00 31 1006.0
20260901232037 80 205 3.0 6.0 0.00 0.00 0.00 32 1006.0
20260901231551 79 205 1.0 6.0 0.00 0.00 0.00 32 1006.0
20260901231034 78 0 2.0 7.0 0.00 0.00 0.00 32 1006.0
20260901230536 78 205 4.0 9.0 0.00 0.00 0.00 32 1006.2
20260901230050 77 205 5.0 9.0 0.00 0.00 0.00 33 1006.3
20260901225534 77 205 3.0 8.0 0.00 0.00 0.00 33 1006.4
20260901225035 78 205 5.0 8.0 0.00 0.00 0.00 33 1006.4
20260901224559 78 205 4.0 8.0 0.00 0.00 0.00 34 1006.4
20260901224034 78 205 4.0 8.0 0.00 0.00 0.00 34 1006.5
20260901223535 78 205 3.0 7.0 0.00 0.00 0.00 36 1006.5
20260901223055 77 205 2.0 9.0 0.00 0.00 0.00 35 1006.5
20260901222536 77 205 4.0 9.0 0.00 0.00 0.00 35 1006.7
20260901222035 77 205 3.0 9.0 0.00 0.00 0.00 36 1006.7
20260901221617 77 205 2.0 7.0 0.00 0.00 0.00 37 1006.8
20260901221035 76 205 3.0 8.0 0.00 0.00 0.00 37 1006.8
20260901220534 76 205 5.0 8.0 0.00 0.00 0.00 37 1006.8
20260901220118 76 205 5.0 10.0 0.00 0.00 0.00 37 1006.8
20260901215535 76 205 4.0 10.0 0.00 0.00 0.00 37 1006.8
20260901215034 76 205 4.0 11.0 0.00 0.00 0.00 37 1006.9
20260901214559 76 205 6.0 12.0 0.00 0.00 0.00 37 1007.0
20260901214034 76 205 7.0 12.0 0.00 0.00 0.00 36 1007.1
20260901213535 75 205 6.0 12.0 0.00 0.00 0.00 39 1007.1
20260901213110 75 205 8.0 12.0 0.00 0.00 0.00 39 1007.2
20260901212535 74 205 8.0 12.0 0.00 0.00 0.00 38 1007.2
20260901212034 74 205 8.0 12.0 0.00 0.00 0.00 40 1007.1
20260901211554 74 200 7.0 10.0 0.00 0.00 0.00 41 1007.1
20260901211034 74 200 5.0 9.0 0.00 0.00 0.00 41 1007.2
20260901210535 73 200 4.0 11.0 0.00 0.00 0.00 44 1007.2
20260901210100 71 200 6.0 12.0 0.00 0.00 0.00 47 1007.2
20260901205538 71 200 8.0 12.0 0.00 0.00 0.00 46 1007.7
20260901205031 71 200 8.0 14.0 0.00 0.00 0.00 45 1007.7
20260901204600 71 200 7.0 14.0 0.00 0.00 0.00 45 1007.6
20260901204033 71 200 10.0 14.0 0.00 0.00 0.00 45 1007.8
20260901203534 71 200 9.0 11.0 0.00 0.00 0.00 47 1007.7
20260901203102 71 200 8.0 11.0 0.00 0.00 0.00 45 1007.5
20260901202534 72 200 9.0 11.0 0.00 0.00 0.00 43 1007.7
20260901202037 72 200 7.0 11.0 0.00 0.00 0.00 42 1007.6
20260901201552 72 200 3.0 10.0 0.00 0.00 0.00 42 1007.3
20260901201035 72 200 5.0 10.0 0.00 0.00 0.00 41 1007.0
20260901200534 72 200 7.0 10.0 0.00 0.00 0.00 41 1007.0
20260901200054 72 200 5.0 8.0 0.00 0.00 0.00 41 1007.0
20260901195539 72 200 5.0 11.0 0.00 0.00 0.00 41 1007.2
20260901195038 72 200 4.0 15.0 0.00 0.00 0.00 42 1007.2
20260901194550 72 200 8.0 17.0 0.00 0.00 0.00 41 1007.3
20260901194035 72 190 10.0 17.0 0.00 0.00 0.00 42 1007.9
20260901193536 72 190 11.0 17.0 0.00 0.00 0.00 41 1008.0
20260901193100 71 207 13.0 17.0 0.00 0.00 0.00 42 1008.1
20260901192539 71 208 9.0 14.0 0.00 0.00 0.00 42 1008.3
20260901192037 71 209 8.0 14.0 0.00 0.00 0.00 43 1008.2
20260901191558 70 209 8.0 14.0 0.00 0.00 0.00 44 1008.3
20260901191034 70 209 8.0 13.0 0.00 0.00 0.00 45 1008.4
20260901190538 70 209 8.0 15.0 0.00 0.00 0.00 45 1008.3
20260901190049 70 209 10.0 15.0 0.00 0.00 0.00 45 1008.3
20260901185537 69 209 9.0 13.0 0.00 0.00 0.00 46 1008.3
20260901185036 69 209 8.0 14.0 0.00 0.00 0.00 46 1008.5
20260901184547 69 209 9.0 15.0 0.00 0.00 0.00 46 1008.3
20260901184036 69 209 9.0 15.0 0.00 0.00 0.00 45 1008.2
20260901183535 69 209 8.0 16.0 0.00 0.00 0.00 45 1008.1
20260901183054 69 209 11.0 16.0 0.00 0.00 0.00 44 1008.1
20260901182535 70 209 12.0 16.0 0.00 0.00 0.00 43 1008.1
20260901182035 70 221 10.0 16.0 0.00 0.00 0.00 44 1008.0
20260901181550 70 221 10.0 17.0 0.00 0.00 0.00 45 1008.1
20260901181034 70 217 12.0 18.0 0.00 0.00 0.00 45 1008.2
20260901180534 70 217 12.0 19.0 0.00 0.00 0.00 44 1008.0
20260901180047 70 217 13.0 19.0 0.00 0.00 0.00 44 1008.0
20260901175534 70 225 13.0 19.0 0.00 0.00 0.00 43 1007.9
20260901175035 71 225 12.0 17.0 0.00 0.00 0.00 43 1008.1
20260901174556 71 225 12.0 18.0 0.00 0.00 0.00 42 1008.0
20260901174035 72 209 13.0 19.0 0.00 0.00 0.00 38 1008.1
20260901173535 72 226 13.0 19.0 0.00 0.00 0.00 38 1007.9
20260901173052 72 232 10.0 14.0 0.00 0.00 0.00 38 1007.5
20260901172538 72 218 7.0 12.0 0.00 0.00 0.00 39 1007.6
20260901172031 71 218 8.0 12.0 0.00 0.00 0.00 40 1007.6
20260901171606 71 216 7.0 15.0 0.00 0.00 0.00 39 1007.6
20260901171032 71 215 9.0 15.0 0.00 0.00 0.00 39 1007.6
20260901170531 71 213 9.0 15.0 0.00 0.00 0.00 39 1007.6
20260901170052 70 221 11.0 15.0 0.00 0.00 0.00 40 1007.6
20260901165530 70 204 10.0 15.0 0.00 0.00 0.00 40 1007.8
20260901165033 71 207 10.0 18.0 0.00 0.00 0.00 39 1007.6
20260901164551 70 207 11.0 18.0 0.00 0.00 0.00 40 1007.7
20260901164030 70 206 12.0 18.0 0.00 0.00 0.00 40 1007.8
20260901163530 69 206 13.0 19.0 0.00 0.00 0.00 40 1007.8
20260901163105 69 207 13.0 19.0 0.00 0.00 0.00 41 1008.0
20260901162532 69 216 11.0 19.0 0.00 0.00 0.00 40 1008.0
20260901162031 69 216 11.0 20.0 0.00 0.00 0.00 39 1007.9
20260901161555 69 219 12.0 20.0 0.00 0.00 0.00 40 1007.8
20260901161034 68 192 11.0 17.0 0.00 0.00 0.00 41 1007.7
20260901160530 68 191 11.0 20.0 0.00 0.00 0.00 42 1007.6
20260901160054 67 186 13.0 20.0 0.00 0.00 0.00 44 1007.6
20260901155531 66 169 12.0 17.0 0.00 0.00 0.00 45 1007.7
20260901155031 66 157 11.0 17.0 0.00 0.00 0.00 46 1007.6
20260901154549 65 143 10.0 14.0 0.00 0.00 0.00 49 1007.6
20260901154031 64 136 9.0 14.0 0.00 0.00 0.00 50 1007.5
20260901153531 64 136 8.0 14.0 0.00 0.00 0.00 50 1007.5
20260901153103 65 136 7.0 14.0 0.00 0.00 0.00 49 1007.5
20260901152531 65 132 10.0 15.0 0.00 0.00 0.00 48 1007.6
20260901152031 64 125 9.0 15.0 0.00 0.00 0.00 49 1007.5
20260901151557 64 122 10.0 15.0 0.00 0.00 0.00 48 1007.5
20260901151031 63 94 8.0 13.0 0.00 0.00 0.00 48 1007.3
20260901150531 63 93 9.0 13.0 0.00 0.00 0.00 47 1007.5
20260901150050 63 86 5.0 10.0 0.00 0.00 0.00 48 1007.4
20260901145535 63 63 6.0 10.0 0.00 0.00 0.00 49 1007.3
20260901145031 62 63 5.0 10.0 0.00 0.00 0.00 50 1007.3
20260901144551 61 63 3.0 6.0 0.00 0.00 0.00 51 1007.3
20260901144031 60 63 3.0 6.0 0.00 0.00 0.00 52 1007.2
20260901143531 60 0 0.0 0.0 0.00 0.00 0.00 53 1006.9
20260901143053 60 0 0.0 3.0 0.00 0.00 0.00 53 1007.0
20260901142532 59 0 0.0 5.0 0.00 0.00 0.00 55 1006.9
20260901142031 59 63 2.0 5.0 0.00 0.00 0.00 56 1007.0
20260901141557 58 63 3.0 5.0 0.00 0.00 0.00 56 1006.9
20260901141034 58 0 1.0 4.0 0.00 0.00 0.00 57 1006.8
20260901140535 57 63 2.0 4.0 0.00 0.00 0.00 57 1006.7
20260901140051 57 63 0.0 3.0 0.00 0.00 0.00 56 1006.7
20260901135537 57 63 1.0 4.0 0.00 0.00 0.00 55 1006.7
20260901135036 58 0 0.0 4.0 0.00 0.00 0.00 55 1006.8
20260901134551 58 63 2.0 4.0 0.00 0.00 0.00 55 1006.7